Date String (YYYY-MM-DD hh:mm:ss) UTC,Instrument flags,Ambient pressure (hPa),Sample flow (lpm),Bypass flow (lpm),Sample temperature (°C),Ambient temperature (°C),ASC tube jacket temperature (°C),LED temperature (°C),Box temperature (°C),Sample RH (%),Span deviation,Mass concentration (μg/m³),Mass concentration (μg/m³),Mass concentration (μg/m³)
DateTimeUTC,F1_M11,P_M11,Q1_M11,Q2_M11,T1_M11,T2_M11,T3_M11,T4_M11,T5_M11,U1_M11,ZSPAN_M11,X0_M11,X2_M11,X1_M11
2022-03-18 18:00:00,,0825.7,5.00,0.00,23.1,22.5,00.0,32.1,24.9,13.2,0000.0,0007.96,0003.77,0003.41
2022-03-18 18:01:00,,0825.7,5.00,0.00,23.1,22.5,00.0,32.1,24.9,13.7,0000.0,0008.03,0003.82,0003.43
2022-03-18 18:02:00,,0825.6,4.99,0.00,23.1,22.5,00.0,32.1,24.9,13.3,0000.0,0007.84,0003.83,0003.44
2022-03-18 18:03:00,,0825.6,5.01,0.00,23.1,22.4,00.0,32.1,24.9,13.3,0000.0,0008.17,0003.85,0003.45
2022-03-18 18:04:00,,0825.6,5.00,0.00,23.1,22.4,00.0,32.1,24.9,13.5,0000.0,0008.96,0003.86,0003.46
2022-03-18 18:05:00,,0825.6,4.99,0.00,23.1,22.4,00.0,32.1,24.9,13.6,0000.0,0009.10,0003.85,0003.46
2022-03-18 18:06:00,,0825.7,4.99,0.00,23.1,22.4,00.0,32.1,24.9,13.8,0000.0,0009.62,0003.85,0003.46
2022-03-18 18:07:00,,0825.6,5.01,0.00,23.1,22.5,00.0,32.1,24.9,13.3,0000.0,0009.33,0003.87,0003.46
2022-03-18 18:08:00,,0825.6,5.00,0.00,23.1,22.5,00.0,32.1,24.9,13.2,0000.0,0009.42,0003.90,0003.48
2022-03-18 18:09:00,,0825.6,4.99,0.00,23.1,22.5,00.0,32.1,24.9,12.8,0000.0,0009.39,0003.89,0003.48
2022-03-18 18:10:00,,0825.6,5.00,0.00,23.1,22.5,00.0,32.1,24.9,12.9,0000.0,0009.41,0003.90,0003.49
2022-03-18 18:11:00,,0825.6,5.02,0.00,23.1,22.5,00.0,32.1,24.9,12.8,0000.0,0009.50,0003.92,0003.48
2022-03-18 18:12:00,,0825.6,4.99,0.00,23.1,22.4,00.0,32.1,24.9,13.0,0000.0,0009.60,0003.89,0003.46
2022-03-18 18:13:00,,0825.6,4.99,0.00,23.1,22.4,00.0,32.1,24.9,13.4,0000.0,0009.93,0003.86,0003.45
2022-03-18 18:14:00,,0825.6,5.01,0.00,23.1,22.4,00.0,32.1,24.9,13.6,0000.0,0009.41,0003.84,0003.44
2022-03-18 18:15:00,,0825.6,4.99,0.00,23.1,22.4,00.0,32.1,24.9,13.9,0000.0,0008.62,0003.85,0003.43
2022-03-18 18:16:00,,0825.6,5.00,0.00,23.1,22.4,00.0,32.1,24.9,13.9,0000.0,0008.45,0003.88,0003.44
2022-03-18 18:17:00,,0825.6,5.01,0.00,23.1,22.4,00.0,32.1,24.9,14.2,0000.0,0007.79,0003.88,0003.44
2022-03-18 18:18:00,,0825.5,5.00,0.00,23.1,22.4,00.0,32.1,24.8,13.5,0000.0,0007.70,0003.87,0003.44
2022-03-18 18:19:00,,0825.6,4.99,0.00,23.1,22.4,00.0,32.1,24.8,13.0,0000.0,0007.52,0003.84,0003.44
2022-03-18 18:20:00,,0825.6,5.01,0.00,23.1,22.4,00.0,32.1,24.9,13.6,0000.0,0007.42,0003.85,0003.44
2022-03-18 18:21:00,,0825.6,5.00,0.00,23.1,22.4,00.0,32.1,24.8,13.8,0000.0,0007.36,0003.84,0003.44
2022-03-18 18:22:00,,0825.6,5.00,0.00,23.1,22.4,00.0,32.1,24.8,13.3,0000.0,0007.09,0003.80,0003.44
2022-03-18 18:23:00,,0825.6,5.00,0.00,23.1,22.4,00.0,32.1,24.8,13.6,0000.0,0007.25,0003.82,0003.46
2022-03-18 18:24:00,,0825.6,5.01,0.00,23.1,22.4,00.0,32.1,24.8,13.8,0000.0,0007.13,0003.88,0003.48
2022-03-18 18:25:00,,0825.6,5.00,0.00,23.1,22.4,00.0,32.1,24.8,14.0,0000.0,0007.08,0003.90,0003.51
2022-03-18 18:26:00,,0825.5,4.99,0.00,23.0,22.4,00.0,32.0,24.8,13.7,0000.0,0007.17,0003.95,0003.54
2022-03-18 18:27:00,,0825.5,5.01,0.00,23.0,22.3,00.0,32.0,24.7,13.9,0000.0,0007.31,0003.98,0003.57
2022-03-18 18:28:00,,0825.6,5.01,0.00,23.0,22.3,00.0,32.0,24.7,13.5,0000.0,0008.10,0004.01,0003.60
2022-03-18 18:29:00,,0825.5,4.98,0.00,23.0,22.3,00.0,32.0,24.8,14.0,0000.0,0008.36,0004.04,0003.63
2022-03-18 18:30:00,,0825.5,5.00,0.00,23.0,22.3,00.0,32.0,24.7,14.4,0000.0,0008.80,0004.13,0003.67
2022-03-18 18:31:00,,0825.5,5.01,0.00,23.0,22.3,00.0,32.0,24.7,14.1,0000.0,0008.96,0004.19,0003.72
2022-03-18 18:32:00,,0825.5,4.99,0.00,23.0,22.3,00.0,32.0,24.8,14.2,0000.0,0009.23,0004.26,0003.76
2022-03-18 18:33:00,,0825.5,5.00,0.00,23.0,22.4,00.0,32.0,24.8,14.1,0000.0,0010.24,0004.35,0003.82
2022-03-18 18:34:00,,0825.5,5.00,0.00,23.0,22.3,00.0,32.0,24.7,13.4,0000.0,0010.11,0004.39,0003.85
2022-03-18 18:35:00,,0825.5,4.99,0.00,23.0,22.3,00.0,32.0,24.7,13.3,0000.0,0009.89,0004.39,0003.88
2022-03-18 18:36:00,,0825.5,4.99,0.00,23.0,22.3,00.0,32.0,24.8,14.0,0000.0,0009.96,0004.43,0003.91
2022-03-18 18:37:00,,0825.5,5.02,0.00,23.0,22.4,00.0,32.0,24.8,14.8,0000.0,0010.68,0004.48,0003.93
2022-03-18 18:38:00,,0825.5,5.00,0.00,23.0,22.4,00.0,32.0,24.8,14.5,0000.0,0010.77,0004.55,0003.97
2022-03-18 18:39:00,,0825.5,5.00,0.00,23.0,22.4,00.0,32.0,24.8,14.1,0000.0,0010.21,0004.63,0004.02
2022-03-18 18:40:00,,0825.5,5.00,0.00,23.0,22.4,00.0,32.0,24.8,14.3,0000.0,0010.45,0004.72,0004.05
2022-03-18 18:41:00,,0825.5,5.01,0.00,23.1,22.5,00.0,32.0,24.9,14.8,0000.0,0010.22,0004.71,0004.08
2022-03-18 18:42:00,,0825.5,5.00,0.00,23.1,22.5,00.0,32.0,24.9,15.3,0000.0,0010.83,0004.74,0004.08
2022-03-18 18:43:00,,0825.5,4.99,0.00,23.1,22.5,00.0,32.0,24.9,14.8,0000.0,0010.70,0004.74,0004.09
2022-03-18 18:44:00,,0825.5,4.99,0.00,23.1,22.5,00.0,32.0,24.9,14.2,0000.0,0010.26,0004.77,0004.09
2022-03-18 18:45:00,,0825.5,5.00,0.00,23.1,22.5,00.0,32.0,24.9,14.1,0000.0,0010.63,0004.77,0004.09
2022-03-18 18:46:00,,0825.5,5.00,0.00,23.1,22.5,00.0,32.0,24.8,13.7,0000.0,0011.09,0004.81,0004.10
2022-03-18 18:47:00,,0825.5,5.01,0.00,23.1,22.5,00.0,32.0,24.9,13.9,0000.0,0011.17,0004.80,0004.08
2022-03-18 18:48:00,,0825.4,5.00,0.00,23.1,22.5,00.0,32.0,24.9,14.1,0000.0,0010.61,0004.77,0004.07
2022-03-18 18:49:00,,0825.5,5.00,0.00,23.2,22.6,00.0,32.0,25.0,14.4,0000.0,0010.45,0004.75,0004.03
2022-03-18 18:50:00,,0825.4,5.00,0.00,23.2,22.6,00.0,32.1,25.0,14.4,0000.0,0010.36,0004.70,0004.00
2022-03-18 18:51:00,,0825.4,5.00,0.00,23.2,22.6,00.0,32.1,25.0,15.1,0000.0,0010.52,0004.67,0003.97
2022-03-18 18:52:00,,0825.4,5.00,0.00,23.2,22.6,00.0,32.1,25.0,15.0,0000.0,0010.84,0004.67,0003.96
2022-03-18 18:53:00,,0825.4,5.00,0.00,23.2,22.6,00.0,32.1,25.0,13.8,0000.0,0010.47,0004.69,0003.95
2022-03-18 18:54:00,,0825.4,5.01,0.00,23.2,22.6,00.0,32.1,25.0,13.5,0000.0,0010.47,0004.69,0003.95
2022-03-18 18:55:00,,0825.4,5.00,0.00,23.2,22.6,00.0,32.1,25.0,13.4,0000.0,0010.29,0004.63,0003.92
2022-03-18 18:56:00,,0825.4,4.99,0.00,23.2,22.6,00.0,32.1,25.0,12.7,0000.0,0010.00,0004.59,0003.90
2022-03-18 18:57:00,,0825.4,5.00,0.00,23.2,22.6,00.0,32.1,25.0,12.4,0000.0,0009.67,0004.57,0003.88
2022-03-18 18:58:00,,0825.4,5.01,0.00,23.2,22.6,00.0,32.1,25.0,12.4,0000.0,0009.80,0004.56,0003.86
2022-03-18 18:59:00,,0825.4,5.00,0.00,23.2,22.6,00.0,32.1,25.0,12.4,0000.0,0010.04,0004.52,0003.82
